Temperature
18 18 18 18 17 17 17 18 18 18 18 18 17 17 17 17 17 17 17 17 16 16 16 16 16 16 16 16 16 16 16 15 15 15 15 15 15 15 15 15 15 15 15
19 18 18 18 17 17 17 17 17 17 17 17 17 17 17 17 17 17 17 16 16 16 16 16 15 16 16 15 16 16 15 15 15 15 15 15 15 15 15 15 15 14 14
18 18 18 18 17 17 17 17 17 17 17 17 17 17 17 17 16 16 16 16 16 16 15 15 15 15 15 15 15 15 15 15 15 15 15 15 15 15 15 14 14 14 14
18 18 18 17 17 17 17 17 17 17 17 17 17 17 17 16 16 16 16 16 16 16 16 15 15 15 15 15 15 15 15 15 15 15 15 15 15 14 14 14 14 14 14
18 18 17 17 17 17 17 17 17 17 17 17 17 17 16 16 16 16 16 15 15 15 15 15 15 15 15 15 15 15 15 15 15 14 14 14 14 14 14 14 14 14 14
18 18 17 17 17 17 17 17 17 17 16 16 16 16 16 16 16 16 15 15 15 15 15 15 15 15 15 15 15 15 15 15 14 14 14 14 14 14 14 14 14 14 14
18 17 17 17 17 17 17 16 16 16 16 16 16 16 16 16 16 15 15 15 15 15 15 15 15 15 15 15 15 15 14 14 14 14 14 14 14 14 14 14 14 14 14
18 17 17 17 17 17 17 16 16 16 16 16 16 16 15 15 15 15 15 15 15 15 15 15 15 15 15 15 15 14 14 14 14 14 14 14 14 14 14 14 14 14 14
17 17 17 16 16 16 16 16 16 16 16 16 15 15 15 15 15 15 15 15 15 15 15 15 15 15 15 14 14 14 14 14 14 14 14 14 14 14 14 14 13 13 13
17 17 17 16 16 16 16 16 16 16 16 15 15 15 15 15 15 15 15 15 15 15 15 15 14 14 14 14 14 14 14 14 14 14 14 14 13 13 13 13 13 13 13
17 17 17 16 16 16 16 16 16 15 15 15 15 15 15 15 15 15 15 15 14 14 14 14 14 14 14 14 14 14 14 13 13 13 13 13 13 13 13 13 13 13 13
17 16 16 16 16 16 16 16 15 15 15 15 15 15 15 15 15 14 14 14 14 14 14 14 14 14 14 14 14 13 13 13 13 13 13 13 13 13 13 13 13 13 13
17 17 16 16 16 16 16 16 15 15 15 15 15 15 14 14 14 14 14 14 14 14 14 14 14 14 14 14 13 13 13 13 13 13 13 13 13 13 13 13 12 12 12
16 16 16 16 16 16 16 16 15 15 15 15 15 14 14 14 14 14 14 14 14 14 13 13 13 13 13 13 13 13 13 13 13 13 12 12 12 12 12 12 12 12 11
16 16 16 16 16 16 16 15 15 15 15 15 15 14 14 14 14 14 14 14 13 13 13 13 13 13 13 13 13 13 13 13 12 12 12 12 12 12 12 12 11 11 11
16 16 16 16 16 16 16 15 15 15 15 15 14 14 14 14 14 14 14 13 13 13 13 13 13 13 13 13 12 12 12 12 12 12 12 12 12 12 11 11 11 11 11
16 16 16 16 16 16 15 15 15 15 15 15 14 14 14 14 14 13 13 13 13 13 13 13 13 13 12 12 12 12 12 12 12 12 12 11 11 11 11 11 10 10 10
16 16 16 16 16 15 15 15 15 15 15 14 14 14 14 13 13 13 13 13 13 13 13 12 12 12 12 12 12 12 12 12 11 11 11 11 11 11 11 10 10 10 10
16 16 16 15 15 15 15 15 15 14 14 14 14 14 13 13 13 13 13 13 12 12 12 12 12 12 12 12 12 11 11 11 11 11 11 10 10 10 10 10 10 10 9
16 16 16 15 15 15 15 14 14 14 14 14 13 13 13 13 13 12 12 12 12 12 12 12 12 11 11 11 11 11 11 11 10 10 10 10 10 10 9 9 9 9 9
15 15 15 15 15 15 14 14 14 14 14 13 13 13 13 13 12 12 12 12 12 12 12 11 11 11 11 10 10 10 10 10 10 10 9 9 9 9 9 9 9 9 8
15 15 15 15 15 14 14 14 14 14 13 13 13 12 12 12 12 12 12 12 12 11 11 11 11 10 10 10 9 9 9 9 9 9 9 9 9 8 8 8 8 8 8
14 15 15 14 14 14 14 14 13 13 12 12 12 12 12 12 12 12 12 11 11 11 11 11 10 10 10 9 9 9 8 8 8 8 8 8 8 8 8 8 8 7 7
14 14 14 14 14 14 13 13 13 13 12 12 12 12 12 11 11 11 11 11 11 11 10 10 10 9 9 9 9 8 8 8 7 7 7 8 7 7 7 7 7 7 7
14 14 14 13 13 13 13 13 13 12 12 12 12 12 11 11 11 11 11 11 10 10 10 10 9 9 9 8 8 8 8 7 7 6 6 7 7 7 7 7 6 6 6
13 13 13 13 13 13 13 12 12 12 12 12 11 11 11 11 11 11 10 10 10 10 10 9 9 9 8 8 8 7 7 7 7 6 6 6 6 6 6 6 6 6 6
Wind_Speed
6 10 16 16 15 15 15 15 14 15 15 15 15 15 14 14 14 13 13 13 12 12 12 12 12 12 12 12 11 11 11 12 11 11 11 10 10 10 10 10 9 8 8
10 13 17 16 16 16 15 15 15 14 15 15 14 14 14 13 13 12 12 12 12 12 11 11 11 11 11 11 11 11 11 11 10 10 9 8 9 10 10 9 9 7 8
13 14 16 17 16 16 16 16 15 15 14 14 14 13 13 12 12 12 11 11 11 11 11 11 10 10 10 10 10 10 10 9 9 8 8 7 7 8 8 8 8 8 7
14 15 15 17 17 17 16 16 15 15 14 14 13 13 12 12 11 11 11 11 11 10 10 10 10 9 9 9 9 9 9 9 8 7 6 6 5 6 7 7 7 7 7
12 14 16 18 17 17 16 15 15 14 14 14 13 12 12 11 11 11 10 10 10 10 9 9 9 8 8 8 8 7 8 8 8 7 7 6 5 6 6 6 5 6 6
10 13 16 18 17 17 16 15 15 14 14 13 12 12 11 10 10 10 10 10 9 9 9 8 8 7 7 7 6 6 7 8 7 7 6 5 5 5 5 5 5 5 5
10 12 16 17 17 17 15 15 14 14 13 13 12 11 11 10 10 10 9 9 8 8 8 7 7 7 7 6 6 6 7 7 7 6 5 4 4 4 4 4 4 3 3
12 11 14 17 17 16 16 15 14 14 13 12 12 11 10 10 9 9 8 8 8 7 7 7 6 6 6 6 6 5 6 7 6 4 3 2 2 3 3 3 3 2 2
11 10 10 13 15 15 15 15 14 13 12 11 11 10 10 10 9 8 8 7 7 7 7 6 6 5 5 5 5 4 4 5 5 3 2 1 2 2 2 3 2 2 2
9 9 8 10 12 12 13 14 14 13 12 11 10 10 10 9 8 8 7 7 7 6 6 5 5 4 4 3 3 3 3 3 3 2 0 0 1 1 1 1 1 2 2
9 7 8 7 9 10 11 12 12 12 11 11 9 10 10 8 7 6 6 6 6 5 5 4 4 3 2 2 2 2 2 2 1 0 1 1 1 1 0 1 1 2 2
10 8 8 8 8 9 9 9 9 9 9 9 8 9 8 7 6 5 5 6 5 4 4 3 2 2 2 2 2 2 2 2 1 1 2 2 2 2 1 1 2 2 3
10 9 9 9 8 8 6 8 7 7 7 7 8 8 8 7 5 4 4 3 3 3 2 1 1 1 1 1 2 2 2 2 2 2 3 3 3 3 3 2 3 3 4
9 9 9 9 8 8 7 6 6 5 5 5 7 8 7 4 3 3 3 3 3 2 2 1 1 1 2 2 2 2 2 2 2 2 3 3 2 3 4 4 4 5 5
9 9 9 9 9 8 7 6 6 5 5 6 7 7 8 5 3 3 3 3 3 3 2 2 1 1 2 2 2 2 2 2 2 2 2 2 2 4 5 6 6 6 6
8 8 8 9 9 9 7 6 6 6 7 7 6 7 8 7 5 4 2 2 2 3 3 3 2 1 1 1 2 2 2 2 2 2 2 3 3 4 5 6 7 7 7
9 8 8 9 8 9 8 7 6 6 7 5 6 7 8 8 7 5 3 2 2 3 3 3 2 2 1 2 2 2 2 2 2 2 2 2 2 3 5 6 7 8 8
8 8 8 8 8 8 7 6 5 6 6 5 6 6 7 8 8 5 3 2 3 4 3 2 1 1 1 1 2 2 2 2 1 1 1 2 2 3 4 6 7 8 9
9 9 7 7 8 8 7 6 6 5 5 5 6 5 6 7 8 6 3 3 4 3 2 2 2 1 1 2 2 2 2 1 2 1 1 2 2 3 4 6 7 8 9
8 8 8 8 8 7 5 5 4 4 3 4 4 5 6 6 7 6 4 3 4 3 2 2 2 2 1 1 2 2 3 3 1 1 1 2 2 3 4 4 5 6 9
6 7 8 8 8 7 6 5 5 4 4 3 3 5 6 6 7 6 3 3 3 3 2 2 2 2 1 1 2 3 3 3 2 2 2 2 3 3 4 4 5 5 7
7 8 8 9 9 8 7 6 5 5 4 3 3 3 5 6 6 5 5 4 3 3 3 3 2 2 1 2 2 1 2 4 3 3 2 2 2 3 3 5 5 5 6
8 8 9 9 9 8 7 5 4 3 2 1 2 2 3 5 5 5 5 4 4 3 3 3 3 3 1 1 1 2 1 2 3 3 2 2 2 2 3 4 4 5 6
8 7 7 8 8 8 8 8 8 6 5 4 4 3 3 4 4 5 5 5 4 3 3 3 2 2 3 1 1 0 1 2 1 3 3 2 3 3 3 4 5 6 6
7 6 6 7 7 7 8 9 8 6 5 4 3 4 3 2 3 4 5 5 4 3 3 3 2 2 2 2 1 1 0 1 1 2 5 4 4 3 3 3 4 4 6
5 5 6 7 6 7 8 8 9 9 7 6 5 4 3 2 2 3 4 4 4 3 3 3 3 3 2 2 2 1 1 1 2 2 4 6 6 5 4 3 3 3 5
Wind_Direction
157 158 148 143 137 132 129 126 120 115 112 109 106 104 102 100 99 98 98 97 97 96 94 93 92 89 86 86 87 87 87 86 84 82 81 83 85 90 90 89 89 86 86
150 152 146 142 137 133 129 127 123 118 116 113 110 107 105 104 103 102 100 100 99 98 96 93 93 91 88 88 88 88 88 86 83 79 76 77 84 92 93 90 89 87 85
142 146 144 143 138 134 130 128 125 122 119 116 113 111 109 108 108 106 104 103 101 98 96 95 92 90 89 89 87 85 85 82 77 74 75 72 82 91 94 93 91 88 83
141 143 144 142 138 134 131 129 127 125 122 120 116 114 111 108 108 109 108 105 102 99 96 93 92 90 88 89 87 84 79 74 71 74 79 75 79 94 94 92 89 85 84
136 141 145 143 140 136 133 132 130 128 125 123 121 118 115 112 109 110 112 108 105 101 98 95 92 90 90 88 83 79 73 67 68 78 85 78 73 89 93 89 86 85 83
134 139 145 144 142 139 137 135 134 132 129 127 124 122 119 116 113 112 111 109 109 107 103 98 94 91 93 89 83 78 70 66 70 82 85 80 73 79 84 87 87 84 79
138 140 146 145 143 141 140 138 137 136 133 132 129 127 125 121 118 118 116 114 113 114 109 104 96 92 90 86 84 79 69 65 78 82 78 73 75 81 79 78 87 83 78
143 140 146 145 144 144 143 142 140 139 137 136 134 132 131 129 125 124 123 121 118 116 114 110 103 99 93 87 81 75 67 66 73 76 78 74 73 83 81 73 66 63 66
138 136 139 145 145 145 145 144 143 142 141 140 139 138 136 133 131 130 127 125 122 121 121 115 107 102 101 89 72 61 61 66 69 72 75 82 72 78 82 73 54 34 20
139 142 138 141 142 144 146 148 147 147 145 144 143 142 140 138 135 135 133 132 130 127 125 121 110 102 98 82 62 52 52 57 57 56 89 184 118 89 79 69 31 14 353
147 153 149 145 145 146 146 151 150 150 149 148 148 147 141 138 137 138 141 139 136 133 130 124 117 107 87 53 32 24 23 28 27 342 245 247 239 266 283 336 341 335 324
164 167 162 159 152 149 152 149 148 149 150 149 149 150 147 146 146 145 152 152 150 146 143 134 128 90 58 10 350 359 360 335 327 285 266 259 261 279 288 305 311 314 316
169 169 171 169 159 154 148 147 147 147 147 150 154 155 151 146 142 139 138 148 145 140 120 112 83 45 31 354 338 337 326 320 300 287 277 268 271 286 296 296 297 294 298
167 173 173 170 164 160 153 151 152 148 147 153 162 161 149 137 131 134 134 139 132 132 117 92 71 23 0 336 324 330 331 315 288 287 284 286 298 312 313 306 302 294 291
168 173 173 168 167 164 156 158 157 157 157 161 160 163 159 145 148 136 135 138 137 129 122 103 80 50 22 2 348 346 340 334 318 319 323 324 313 315 315 314 312 306 301
176 176 174 171 170 163 166 168 165 160 157 156 156 160 157 150 144 141 134 120 123 135 136 128 119 95 32 14 354 347 345 344 343 333 333 335 333 326 325 326 323 317 312
179 174 172 174 169 166 168 168 161 156 153 152 159 160 156 150 145 140 137 134 132 139 125 107 91 72 40 15 345 348 354 349 357 341 337 341 336 328 325 325 324 322 318
172 171 173 170 166 168 167 163 157 151 150 152 156 154 156 154 149 138 141 147 141 128 111 108 89 66 35 14 348 333 348 353 349 344 346 333 325 322 322 325 326 324 320
173 168 168 164 167 169 166 159 152 147 149 148 147 145 153 157 154 143 144 142 139 115 107 112 79 83 44 5 346 345 345 336 325 351 13 348 332 328 323 324 329 328 327
172 166 165 166 167 163 157 145 140 141 153 142 144 148 152 153 152 144 136 136 131 124 119 113 97 74 69 14 4 357 334 318 332 5 360 352 342 334 331 333 333 329 330
167 168 168 167 170 162 162 163 165 176 177 173 165 154 154 151 149 142 143 135 134 145 151 141 123 84 43 35 46 357 339 340 345 340 357 4 357 347 347 344 339 329 324
175 178 176 174 175 174 174 177 177 173 174 176 165 149 153 154 156 152 151 157 152 143 133 135 124 121 68 52 93 54 347 338 337 330 321 327 330 354 352 340 335 327 325
182 184 183 180 176 174 166 152 138 118 103 122 151 174 168 158 160 156 157 156 155 155 162 166 155 146 157 11 81 135 150 251 299 304 301 310 323 334 330 331 327 324 325
191 185 178 178 175 172 165 162 161 168 175 189 182 179 169 157 158 160 159 155 158 160 164 174 170 165 151 176 332 132 178 189 228 299 313 313 311 306 306 317 321 321 323
182 177 175 172 173 171 168 169 167 168 173 167 155 155 161 161 160 162 161 157 161 164 172 169 167 165 170 177 187 217 304 333 227 241 290 306 309 290 290 294 309 318 320
169 169 168 167 174 172 168 170 171 170 167 160 163 169 172 167 160 162 157 155 160 163 171 173 168 170 178 174 185 191 200 216 240 244 272 292 298 296 295 291 299 310 316
Height
1514 1517 1519 1521 1523 1524 1526 1527 1528 1529 1530 1531 1532 1532 1533 1533 1534 1534 1535 1535 1535 1536 1536 1537 1537 1537 1537 1537 1537 1537 1537 1537 1537 1538 1537 1537 1538 1537 1537 1537 1537 1537 1537
1513 1516 1519 1521 1523 1524 1526 1527 1528 1529 1530 1531 1532 1533 1533 1534 1534 1535 1535 1536 1536 1536 1537 1537 1537 1537 1537 1537 1537 1538 1538 1538 1538 1538 1538 1538 1538 1538 1538 1538 1537 1537 1537
1513 1516 1518 1521 1523 1524 1526 1527 1529 1530 1531 1532 1532 1533 1534 1534 1535 1535 1536 1536 1536 1537 1537 1537 1538 1538 1538 1538 1538 1538 1538 1538 1539 1539 1539 1539 1539 1539 1538 1538 1538 1538 1537
1513 1516 1518 1521 1523 1524 1526 1527 1529 1530 1531 1532 1533 1533 1534 1534 1535 1535 1536 1536 1537 1537 1537 1537 1538 1538 1538 1538 1538 1539 1539 1539 1539 1539 1539 1539 1539 1539 1539 1538 1538 1538 1538
1513 1516 1518 1520 1522 1524 1526 1527 1529 1530 1531 1532 1533 1533 1534 1535 1535 1536 1536 1536 1537 1537 1537 1538 1538 1538 1538 1538 1539 1539 1539 1539 1539 1539 1539 1539 1539 1539 1539 1538 1538 1538 1538
1513 1516 1518 1520 1522 1524 1526 1527 1528 1530 1531 1532 1533 1533 1534 1535 1535 1536 1536 1537 1537 1537 1538 1538 1538 1538 1538 1539 1539 1539 1539 1539 1539 1539 1539 1539 1539 1539 1539 1538 1538 1538 1537
1513 1515 1518 1520 1522 1524 1525 1527 1528 1529 1530 1531 1532 1533 1534 1535 1535 1536 1536 1537 1537 1537 1538 1538 1538 1538 1539 1539 1539 1539 1539 1539 1539 1539 1539 1539 1539 1539 1539 1538 1538 1538 1537
1513 1515 1518 1520 1522 1523 1525 1526 1528 1529 1530 1531 1532 1533 1534 1534 1535 1535 1536 1537 1537 1537 1537 1538 1538 1538 1538 1539 1539 1539 1539 1539 1539 1539 1539 1539 1539 1538 1538 1538 1537 1537 1537
1513 1515 1517 1519 1521 1523 1524 1526 1527 1528 1529 1530 1531 1532 1533 1534 1534 1535 1536 1536 1537 1537 1537 1538 1538 1538 1538 1538 1539 1539 1539 1539 1539 1539 1538 1538 1538 1538 1537 1537 1537 1536 1536
1513 1515 1517 1519 1521 1522 1524 1525 1526 1528 1529 1530 1531 1532 1532 1533 1534 1535 1535 1536 1536 1537 1537 1537 1537 1538 1538 1538 1538 1538 1538 1538 1538 1538 1538 1537 1537 1537 1536 1536 1535 1535 1534
1513 1515 1516 1518 1520 1521 1523 1524 1526 1527 1528 1529 1530 1531 1532 1532 1533 1534 1534 1535 1536 1536 1536 1537 1537 1537 1537 1537 1538 1537 1537 1537 1537 1537 1537 1536 1536 1536 1535 1535 1534 1533 1533
1511 1513 1515 1517 1519 1520 1522 1523 1525 1526 1527 1528 1529 1530 1531 1532 1532 1533 1534 1534 1535 1535 1536 1536 1536 1536 1536 1537 1537 1536 1536 1536 1536 1536 1536 1535 1535 1534 1534 1533 1532 1532 1531
1510 1512 1514 1516 1518 1519 1521 1522 1524 1525 1526 1527 1528 1529 1530 1531 1532 1532 1533 1533 1534 1534 1535 1535 1535 1535 1535 1535 1535 1535 1535 1535 1535 1535 1534 1534 1534 1533 1532 1532 1531 1530 1529
1508 1510 1512 1514 1516 1518 1519 1521 1522 1523 1525 1526 1527 1528 1529 1530 1530 1531 1532 1532 1533 1533 1533 1534 1534 1534 1534 1534 1534 1534 1534 1533 1533 1533 1533 1532 1532 1531 1531 1530 1529 1529 1528
1506 1508 1510 1512 1514 1516 1518 1519 1521 1522 1523 1525 1526 1527 1527 1528 1529 1530 1530 1531 1531 1532 1532 1532 1532 1533 1533 1533 1533 1532 1532 1532 1532 1531 1531 1531 1530 1530 1529 1528 1527 1526 1526
1504 1506 1508 1510 1512 1514 1516 1517 1519 1520 1522 1523 1524 1525 1526 1527 1528 1528 1529 1530 1530 1530 1531 1531 1531 1531 1531 1531 1531 1531 1531 1530 1530 1530 1529 1529 1528 1528 1527 1526 1525 1524 1523
1501 1503 1505 1508 1510 1512 1513 1515 1517 1518 1520 1521 1522 1524 1524 1525 1526 1527 1528 1528 1529 1529 1529 1529 1529 1530 1529 1529 1529 1529 1529 1528 1528 1527 1527 1526 1526 1525 1524 1523 1522 1521 1520
1498 1500 1503 1505 1507 1509 1511 1512 1514 1516 1517 1519 1520 1522 1523 1524 1525 1525 1526 1526 1527 1527 1528 1528 1528 1527 1527 1527 1527 1527 1526 1526 1526 1525 1524 1524 1523 1522 1521 1520 1519 1518 1517
1495 1497 1499 1502 1504 1506 1508 1510 1511 1513 1515 1517 1518 1519 1520 1522 1522 1523 1524 1525 1525 1525 1526 1526 1526 1526 1525 1525 1525 1524 1524 1524 1523 1523 1522 1521 1520 1519 1518 1517 1516 1515 1514
1492 1494 1496 1498 1501 1503 1505 1507 1509 1510 1512 1514 1515 1517 1518 1519 1520 1521 1522 1522 1523 1523 1523 1523 1523 1523 1523 1523 1522 1522 1522 1521 1521 1520 1519 1519 1518 1517 1515 1514 1513 1512 1510
1488 1490 1492 1495 1497 1499 1501 1503 1505 1507 1509 1511 1512 1514 1515 1516 1518 1519 1519 1520 1520 1521 1521 1521 1521 1521 1521 1521 1520 1519 1519 1518 1518 1517 1517 1516 1515 1514 1512 1511 1509 1508 1506
1483 1486 1488 1491 1493 1496 1498 1500 1502 1504 1506 1508 1509 1511 1513 1514 1515 1516 1516 1517 1518 1518 1518 1518 1519 1518 1518 1518 1518 1516 1516 1516 1514 1514 1514 1512 1511 1510 1509 1508 1506 1504 1503
1479 1481 1484 1487 1490 1492 1495 1497 1499 1501 1503 1505 1506 1508 1509 1511 1512 1513 1514 1514 1515 1515 1516 1516 1516 1516 1516 1516 1516 1516 1515 1512 1511 1510 1510 1509 1508 1507 1505 1504 1502 1501 1499
1475 1478 1481 1483 1486 1489 1491 1493 1495 1497 1498 1500 1502 1504 1506 1507 1509 1510 1511 1512 1512 1513 1513 1513 1514 1514 1514 1513 1513 1513 1513 1512 1510 1506 1506 1505 1504 1503 1502 1500 1499 1497 1495
1472 1475 1477 1480 1483 1485 1488 1490 1492 1494 1496 1498 1500 1501 1503 1504 1505 1507 1508 1508 1509 1510 1510 1510 1510 1511 1511 1510 1510 1510 1509 1509 1508 1506 1501 1500 1500 1499 1498 1496 1494 1492 1490
1469 1471 1474 1477 1479 1482 1484 1486 1488 1490 1492 1494 1496 1498 1499 1501 1502 1503 1504 1505 1506 1506 1507 1507 1507 1507 1507 1507 1507 1506 1506 1505 1504 1503 1499 1496 1494 1494 1493 1492 1490 1488 1486